Location: Haulchin
(50.3172°N, 3.4360°E)
Time: 19:51:55
(UTC+00:00)

Cosmos 2333 Rocket - Pass Details

Date: 10 August 2024
Orbit: 838 x 863 km, 70.8° (Epoch: 09 September)

Event Time Altitude Azimuth Distance (km) Brightness Sun altitude
Exits shadow 23:27:22 22° 103° (ESE) 1,792 3.7 -24.3°
Maximum altitude 23:27:29 22° 101° (ESE) 1,792 3.7 -24.3°
Drops below altitude 10° 23:31:46 10° 53° (NE) 2,509 5.0 -24.4°
Sets 23:34:45 0° 39° (NE) 3,453 6.1 -24.4°
